Flag for Netherlands Weather past 2 weeks in Nijmegen, Netherlands

Now
66 °F

Mild.


Feels Like: 66 °F
Forecast: 55 / 71 °F
Wind: 6 mph from Northeast

Location: Volkel

Current Time: Sep 2, 2014 at 11:34:23 AM

Latest Report: Sep 2, 2014 at 10:55 AM


Visibility: N/A

Pressure: 30.18 "Hg

Humidity: 64%

Dew point: 54 °F

Location of NijmegenLocation

Historic Weather in Nijmegen — Graph

°F

Nijmegen temperature yesterday

Maximum temperature yesterday: 70 °F (at 4:25 PM)
Minimum temperature yesterday: 48 °F (at 6:55 AM)
Average temperature yesterday: 59 °F

Past Weeks' High & Low Weather Summary

 TemperatureHumidityPressure
High72 °F (Aug 28, 1:25 PM)100% (Aug 18, 9:25 PM)30.18 "Hg (Aug 18, 9:25 PM)
Low41 °F (Aug 25, 6:04 AM)46% (Aug 27, 5:55 PM)29.62 "Hg (Aug 26, 3:55 AM)
Average57 °F86%29.94 "Hg
* Reported Aug 18 10:01 AM — Sep 2 10:25 AM, Nijmegen, Weather by CustomWeather, © 2014

Note: Actual official high and low records may vary slightly from our data, if they occured in-between our weather recording intervals... More about our weather records

Advertising

Nijmegen weather history for previous 24 hours

 ConditionsComfort  
Time TempWeatherWind HumidityBarometerVisibility
10:25 AM
Sep 2
66 °FMild.5 mph64%30.18 "HgN/A
9:55 AM64 °FPassing clouds.3 mph64%30.18 "HgN/A
9:25 AM63 °FMild.3 mph77%30.18 "HgN/A
8:55 AM61 °FPassing clouds.5 mph83%30.18 "HgN/A
8:25 AM57 °FOvercast.No wind100%30.18 "HgN/A
7:55 AM55 °FPartly sunny.1 mph100%30.15 "HgN/A
7:25 AM55 °FFog.2 mph94%30.15 "Hg4 mi
6:55 AM55 °FFog.1 mph100%30.15 "Hg6 mi
6:25 AM55 °FFog.2 mph94%30.15 "Hg5 mi
6:03 AM55 °FFog.2 mph100%30.15 "Hg4 mi
5:55 AM55 °FFog.2 mph100%30.15 "Hg5 mi
5:25 AM55 °FMostly cloudy.2 mph100%30.15 "HgN/A
4:55 AM57 °FOvercast.1 mph94%30.15 "HgN/A
4:25 AM57 °FOvercast.2 mph94%30.15 "HgN/A
3:55 AM57 °FOvercast.2 mph94%30.15 "HgN/A
3:25 AM57 °FOvercast.2 mph94%30.15 "HgN/A
2:55 AM57 °FOvercast.2 mph100%30.15 "HgN/A
2:25 AM57 °FMostly cloudy.No wind100%30.15 "HgN/A
1:55 AM57 °FFog.1 mph94%30.15 "Hg2 mi
1:25 AM57 °FMostly cloudy.No wind100%30.15 "HgN/A
12:55 AM57 °FOvercast.No wind94%30.15 "HgN/A
12:25 AM55 °FOvercast.No wind100%30.15 "HgN/A
11:55 PM
Sep 1
57 °FMostly cloudy.No wind94%30.15 "HgN/A
11:25 PM57 °FOvercast.No wind94%30.15 "HgN/A
10:55 PM59 °FPartly cloudy.1 mph94%30.15 "HgN/A
10:25 PM59 °FMostly cloudy.1 mph94%30.12 "HgN/A
9:55 PM59 °FOvercast.1 mph94%30.12 "HgN/A
9:25 PM59 °FOvercast.1 mph94%30.12 "HgN/A
8:55 PM61 °FOvercast.1 mph88%30.12 "HgN/A
8:25 PM61 °FOvercast.2 mph88%30.12 "HgN/A
7:55 PM63 °FOvercast.1 mph83%30.12 "HgN/A
7:25 PM64 °FOvercast.3 mph73%30.12 "HgN/A
6:55 PM64 °FOvercast.3 mph73%30.12 "HgN/A
6:25 PM64 °FOvercast.3 mph68%30.12 "HgN/A
5:55 PM66 °FPartly sunny.5 mph64%30.12 "HgN/A
5:25 PM66 °FPassing clouds.5 mph64%30.12 "HgN/A
4:55 PM68 °FMostly cloudy.8 mph56%30.12 "HgN/A
4:25 PM70 °FOvercast.6 mph57%30.12 "HgN/A
3:55 PM68 °FPassing clouds.5 mph60%30.12 "HgN/A
3:25 PM66 °FPartly sunny.6 mph64%30.12 "HgN/A
2:55 PM66 °FScattered clouds.5 mph64%30.12 "HgN/A
2:25 PM68 °FPassing clouds.3 mph64%30.12 "HgN/A
1:55 PM64 °FBroken clouds.6 mph68%30.12 "HgN/A
1:25 PM68 °FBroken clouds.7 mph60%30.12 "HgN/A
12:55 PM64 °FPartly sunny.7 mph73%30.15 "HgN/A
12:25 PM64 °FMostly cloudy.5 mph73%30.12 "HgN/A
11:55 AM64 °FMore clouds than sun.2 mph73%30.15 "HgN/A
11:25 AM63 °FPassing clouds.3 mph77%30.12 "HgN/A
11:03 AM63 °FPassing clouds.3 mph77%30.12 "HgN/A
Weather by CustomWeather, © 2014

See weather overviewHow to use our weather pages